When you browse on this site, cookies collect data to enhance your experience and personalize the content and advertising you see.
Visit our Privacy Policy to learn more. By continuing to use the site, you agree to this use of cookies and data.
  • en France
  • Liste des pays
  • À 7 jours
  • Température de l'eau
  • Carte météo
  • Widgets météo
  • user-avatar
    Se connecter

    Météo par heure à Wirowek

    Ce jour, 23 Octobre, Mercredi

    Heure Température Précipitation Vent Pression Humidité
    00:00 +14°C° 0 mm 1 m/s 752 mmHg 85%
    01:00 +14°C° 0 mm 1 m/s 752 mmHg 84%
    02:00 +14°C° 0 mm 1 m/s 752 mmHg 85%
    03:00 +13°C° 0 mm 1 m/s 752 mmHg 86%
    04:00 +13°C° 0 mm 1 m/s 752 mmHg 87%
    05:00 +13°C° 0 mm 1 m/s 752 mmHg 86%
    06:00 +13°C° 0 mm 1 m/s 752 mmHg 86%
    07:00 +12°C° 0 mm 0 m/s 752 mmHg 85%
    08:00 +15°C° 0 mm 1 m/s 752 mmHg 78%
    09:00 +16°C° 0 mm 1 m/s 752 mmHg 72%
    10:00 +19°C° 0 mm 1 m/s 752 mmHg 65%
    11:00 +20°C° 0 mm 1 m/s 751 mmHg 62%
    12:00 +21°C° 0 mm 1 m/s 751 mmHg 60%
    13:00 +21°C° 0 mm 1 m/s 751 mmHg 57%
    14:00 +21°C° 0 mm 1 m/s 750 mmHg 62%
    15:00 +19°C° 0 mm 2 m/s 750 mmHg 66%
    16:00 +18°C° 0 mm 2 m/s 750 mmHg 70%
    17:00 +17°C° 0 mm 2 m/s 750 mmHg 75%
    18:00 +16°C° 0 mm 2 m/s 749 mmHg 79%
    19:00 +15°C° 0 mm 2 m/s 749 mmHg 84%
    20:00 +15°C° 0 mm 2 m/s 749 mmHg 86%
    21:00 +14°C° 0 mm 2 m/s 749 mmHg 88%
    22:00 +14°C° 0 mm 2 m/s 749 mmHg 90%
    23:00 +13°C° 0 mm 3 m/s 748 mmHg 91%

    Demain, 24 Octobre, Jeudi

    Heure Température Précipitation Vent Pression Humidité
    00:00 +13°C° 0 mm 3 m/s 748 mmHg 91%
    01:00 +12°C° 0 mm 3 m/s 748 mmHg 92%
    02:00 +12°C° 0 mm 3 m/s 748 mmHg 92%
    03:00 +12°C° 0 mm 3 m/s 747 mmHg 92%
    04:00 +12°C° 0 mm 3 m/s 747 mmHg 93%
    05:00 +11°C° 0 mm 3 m/s 746 mmHg 92%
    06:00 +11°C° 0 mm 3 m/s 746 mmHg 92%
    07:00 +11°C° 0 mm 3 m/s 746 mmHg 91%
    08:00 +13°C° 0 mm 3 m/s 746 mmHg 82%
    09:00 +16°C° 0 mm 3 m/s 746 mmHg 73%
    10:00 +18°C° 0 mm 3 m/s 746 mmHg 64%
    11:00 +20°C° 0 mm 3 m/s 745 mmHg 60%
    12:00 +21°C° 0 mm 3 m/s 745 mmHg 55%
    13:00 +22°C° 0 mm 3 m/s 745 mmHg 51%
    14:00 +21°C° 0 mm 3 m/s 744 mmHg 54%
    15:00 +20°C° 0 mm 3 m/s 744 mmHg 57%
    16:00 +20°C° 0 mm 2 m/s 744 mmHg 60%
    17:00 +19°C° 0 mm 2 m/s 744 mmHg 62%
    18:00 +17°C° 0 mm 3 m/s 744 mmHg 64%
    19:00 +16°C° 0 mm 3 m/s 744 mmHg 66%
    20:00 +16°C° 0 mm 2 m/s 744 mmHg 66%
    21:00 +16°C° 0 mm 2 m/s 744 mmHg 66%
    22:00 +15°C° 0 mm 2 m/s 745 mmHg 65%
    23:00 +15°C° 0 mm 2 m/s 745 mmHg 64%

    Après-demain, 25 Octobre, Vendredi

    Heure Température Précipitation Vent Pression Humidité
    00:00 +15°C° 0 mm 2 m/s 745 mmHg 63%
    01:00 +15°C° 0 mm 2 m/s 745 mmHg 62%
    02:00 +14°C° 0 mm 3 m/s 746 mmHg 64%
    03:00 +13°C° 0 mm 3 m/s 746 mmHg 66%
    04:00 +13°C° 0 mm 3 m/s 746 mmHg 68%
    05:00 +13°C° 0 mm 3 m/s 746 mmHg 73%
    06:00 +12°C° 0 mm 3 m/s 747 mmHg 79%
    07:00 +12°C° 0 mm 3 m/s 747 mmHg 84%
    08:00 +13°C° 0 mm 3 m/s 748 mmHg 80%
    09:00 +15°C° 0 mm 4 m/s 748 mmHg 76%
    10:00 +17°C° 0 mm 4 m/s 749 mmHg 72%
    11:00 +18°C° 0 mm 4 m/s 749 mmHg 69%
    12:00 +19°C° 0 mm 4 m/s 750 mmHg 65%
    13:00 +20°C° 0 mm 4 m/s 750 mmHg 62%
    14:00 +19°C° 0 mm 3 m/s 750 mmHg 65%
    15:00 +18°C° 0 mm 3 m/s 750 mmHg 69%
    16:00 +17°C° 0 mm 3 m/s 750 mmHg 72%
    17:00 +16°C° 0 mm 2 m/s 751 mmHg 75%
    18:00 +15°C° 0 mm 2 m/s 751 mmHg 78%
    19:00 +14°C° 0 mm 1 m/s 751 mmHg 81%
    20:00 +13°C° 0 mm 1 m/s 751 mmHg 82%
    21:00 +13°C° 0 mm 1 m/s 752 mmHg 83%
    22:00 +13°C° 0 mm 1 m/s 752 mmHg 85%
    23:00 +12°C° 0 mm 1 m/s 752 mmHg 85%

    26 Octobre, Samedi

    Heure Température Précipitation Vent Pression Humidité
    00:00 +12°C° 0 mm 1 m/s 751 mmHg 86%
    01:00 +12°C° 0 mm 1 m/s 751 mmHg 87%
    02:00 +12°C° 0 mm 1 m/s 751 mmHg 88%
    03:00 +10°C° 0 mm 2 m/s 751 mmHg 89%
    04:00 +10°C° 0 mm 2 m/s 750 mmHg 90%
    05:00 +10°C° 0 mm 2 m/s 750 mmHg 90%
    06:00 +10°C° 0 mm 3 m/s 750 mmHg 91%
    07:00 +10°C° 0 mm 3 m/s 749 mmHg 92%
    08:00 +12°C° 0 mm 3 m/s 749 mmHg 84%
    09:00 +14°C° 0 mm 4 m/s 749 mmHg 77%
    10:00 +16°C° 0 mm 5 m/s 749 mmHg 69%
    11:00 +17°C° 0 mm 5 m/s 748 mmHg 62%
    12:00 +20°C° 0 mm 5 m/s 748 mmHg 55%
    13:00 +21°C° 0 mm 6 m/s 747 mmHg 48%
    14:00 +20°C° 0 mm 5 m/s 747 mmHg 52%
    15:00 +19°C° 0 mm 4 m/s 746 mmHg 56%
    16:00 +18°C° 0 mm 3 m/s 746 mmHg 61%
    17:00 +17°C° 0 mm 4 m/s 746 mmHg 64%
    18:00 +15°C° 0 mm 4 m/s 746 mmHg 68%
    19:00 +14°C° 0 mm 4 m/s 746 mmHg 71%
    20:00 +14°C° 0 mm 4 m/s 746 mmHg 73%
    21:00 +14°C° 0 mm 4 m/s 746 mmHg 75%
    22:00 +14°C° 0 mm 4 m/s 746 mmHg 77%
    23:00 +13°C° 0 mm 4 m/s 746 mmHg 77%

    27 Octobre, Dimanche

    Heure Température Précipitation Vent Pression Humidité
    00:00 +13°C° 0 mm 4 m/s 746 mmHg 78%
    01:00 +13°C° 0 mm 4 m/s 746 mmHg 78%
    02:00 +13°C° 0 mm 4 m/s 746 mmHg 78%
    03:00 +13°C° 0 mm 4 m/s 745 mmHg 78%
    04:00 +12°C° 0 mm 4 m/s 745 mmHg 78%
    05:00 +12°C° 0 mm 4 m/s 745 mmHg 78%
    06:00 +12°C° 0 mm 4 m/s 745 mmHg 78%
    07:00 +12°C° 0 mm 4 m/s 745 mmHg 79%
    08:00 +13°C° 0 mm 5 m/s 746 mmHg 74%
    09:00 +14°C° 0 mm 5 m/s 746 mmHg 69%
    10:00 +16°C° 0 mm 6 m/s 746 mmHg 63%
    11:00 +16°C° 0 mm 6 m/s 746 mmHg 62%
    12:00 +16°C° 0 mm 6 m/s 746 mmHg 61%
    13:00 +16°C° 0 mm 6 m/s 746 mmHg 60%
    14:00 +14°C° 0.2 mm 6 m/s 746 mmHg 67%
    15:00 +12°C° 0.2 mm 7 m/s 746 mmHg 73%
    16:00 +10°C° 0.2 mm 7 m/s 746 mmHg 79%
    17:00 +9°C° 0.3 mm 6 m/s 747 mmHg 75%
    18:00 +8°C° 0.3 mm 5 m/s 747 mmHg 71%
    19:00 +8°C° 0.3 mm 4 m/s 748 mmHg 68%
    20:00 +8°C° 0 mm 3 m/s 748 mmHg 70%
    21:00 +8°C° 0 mm 3 m/s 749 mmHg 72%
    22:00 +7°C° 0 mm 3 m/s 749 mmHg 74%
    23:00 +7°C° 0 mm 3 m/s 749 mmHg 77%

    28 Octobre, Lundi

    Heure Température Précipitation Vent Pression Humidité
    00:00 +5°C° 0 mm 3 m/s 749 mmHg 80%
    01:00 +5°C° 0 mm 3 m/s 749 mmHg 83%
    02:00 +5°C° 0 mm 3 m/s 748 mmHg 83%
    03:00 +5°C° 0 mm 3 m/s 748 mmHg 83%
    04:00 +4°C° 0 mm 3 m/s 748 mmHg 83%
    05:00 +4°C° 0 mm 4 m/s 748 mmHg 82%
    06:00 +4°C° 0 mm 4 m/s 748 mmHg 82%
    07:00 +4°C° 0 mm 4 m/s 748 mmHg 82%
    08:00 +5°C° 0 mm 4 m/s 748 mmHg 78%
    09:00 +6°C° 0 mm 5 m/s 748 mmHg 74%
    10:00 +7°C° 0 mm 5 m/s 748 mmHg 70%
    11:00 +7°C° 0 mm 5 m/s 748 mmHg 68%
    12:00 +8°C° 0 mm 5 m/s 748 mmHg 66%
    13:00 +8°C° 0 mm 6 m/s 747 mmHg 63%
    14:00 +8°C° 0 mm 5 m/s 747 mmHg 63%
    15:00 +7°C° 0 mm 5 m/s 747 mmHg 63%
    16:00 +7°C° 0 mm 4 m/s 747 mmHg 63%
    17:00 +6°C° 0 mm 4 m/s 747 mmHg 65%
    18:00 +5°C° 0 mm 4 m/s 747 mmHg 67%
    19:00 +4°C° 0 mm 3 m/s 747 mmHg 70%
    20:00 +4°C° 0 mm 4 m/s 747 mmHg 70%
    21:00 +4°C° 0 mm 4 m/s 747 mmHg 70%
    22:00 +4°C° 0 mm 4 m/s 748 mmHg 69%
    23:00 +3°C° 0 mm 5 m/s 747 mmHg 72%

    29 Octobre, Mardi

    Heure Température Précipitation Vent Pression Humidité
    00:00 +3°C° 0 mm 5 m/s 747 mmHg 75%
    01:00 +2°C° 0 mm 5 m/s 747 mmHg 78%
    02:00 +2°C° 0 mm 5 m/s 747 mmHg 80%
    03:00 +2°C° 0 mm 5 m/s 747 mmHg 83%
    04:00 +2°C° 0 mm 5 m/s 747 mmHg 85%
    05:00 +2°C° 0 mm 5 m/s 747 mmHg 85%
    06:00 +2°C° 0 mm 5 m/s 748 mmHg 85%
    07:00 +2°C° 0 mm 5 m/s 748 mmHg 85%
    08:00 +2°C° 0.1 mm 5 m/s 749 mmHg 82%
    09:00 +3°C° 0.1 mm 4 m/s 749 mmHg 79%
    10:00 +3°C° 0.1 mm 4 m/s 750 mmHg 76%
    11:00 +3°C° 0 mm 5 m/s 750 mmHg 66%
    12:00 +5°C° 0 mm 5 m/s 751 mmHg 56%
    13:00 +5°C° 0 mm 5 m/s 752 mmHg 46%
    14:00 +3°C° 0 mm 5 m/s 752 mmHg 44%
    15:00 +3°C° 0 mm 5 m/s 752 mmHg 41%
    16:00 +3°C° 0 mm 4 m/s 753 mmHg 39%
    17:00 +1°C° 0 mm 4 m/s 753 mmHg 43%
    18:00 +2°C° 0 mm 3 m/s 754 mmHg 48%
    19:00 +1°C° 0 mm 3 m/s 755 mmHg 53%
    20:00 +1°C° 0 mm 3 m/s 755 mmHg 62%
    21:00 0°C° 0 mm 3 m/s 756 mmHg 71%
    22:00 -1°C° 0 mm 4 m/s 756 mmHg 79%
    23:00 -1°C° 0 mm 4 m/s 757 mmHg 77%
    Voir plus